Weather History for KEGE - October, 2011

Change the Weather History Date:

Friday, October 14, 2011

  Actual Average Record
Temperature  
Mean Temperature 50 °F -  
Max Temperature 71 °F 63 °F 78 °F (1989)
Min Temperature 30 °F 27 °F 13 °F (1952)
Degree Days  
Heating Degree Days 14    
Moisture  
Dew Point 28 °F    
Average Humidity 55    
Maximum Humidity 93    
Minimum Humidity 18    
Precipitation  
Precipitation 0.00 in - - ()
Sea Level Pressure  
Sea Level Pressure 30.21 in    
Wind  
Wind Speed 4 mph (ESE)    
Max Wind Speed 21 mph    
Max Gust Speed 29 mph    
Visibility 10 miles    
Events      
Averages and records for this station are not official NWS values.
T = Trace of Precipitation, MM = Missing Value Source: NWS Daily Summary

Daily Weather History Graph

Daily Weather History Graph

Search for Another Location

Airport or City:

Trip Planner

Search our weather history database for the weather conditions in past years. The results will help you decide how hot, cold, wet, or windy it might be!

Date:

Astronomy

Oct. 14, 2011 Rise Set
Actual Time 7:16 AM MDT 6:30 PM MDT
Civil Twilight 6:49 AM MDT 6:57 PM MDT
Nautical Twilight 6:18 AM MDT 7:28 PM MDT
Astronomical Twilight 5:46 AM MDT 7:59 PM MDT
Moon 7:46 PM MDT (10/14) 9:47 AM MDT (10/14)
Length of Visible Light 12h 07m
Length of Day
11h 13m
Waning Gibbous, 94% of the Moon is Illuminated
Oct 14
Waning Gibbous
Oct 19
Last Quarter
Oct 26
New
Nov 2
First Quarter
Nov 10
Full

Hourly Weather History & Observations

Time (MDT) Temp. Windchill Dew Point Humidity Pressure Visibility Wind Dir Wind Speed Gust Speed Precip Events Conditions
12:15 AM 42.8 °F 41.1 °F 28.4 °F 57% 30.20 in 10.0 mi East 3.5 mph - N/A   Partly Cloudy
12:35 AM 41.0 °F 38.0 °F 28.4 °F 61% 30.20 in 10.0 mi East 4.6 mph - N/A   Clear
12:55 AM 39.2 °F - 28.4 °F 65% 30.20 in 10.0 mi Calm Calm - N/A   Clear
1:15 AM 39.2 °F - 28.4 °F 65% 30.20 in 10.0 mi Calm Calm - N/A   Clear
1:35 AM 37.4 °F 34.9 °F 28.4 °F 70% 30.21 in 10.0 mi ESE 3.5 mph - N/A   Clear
1:56 AM 37.4 °F 33.8 °F 28.4 °F 70% 30.22 in 10.0 mi ESE 4.6 mph - N/A   Clear
2:15 AM 37.4 °F 33.8 °F 28.4 °F 70% 30.22 in 10.0 mi East 4.6 mph - N/A   Clear
2:35 AM 37.4 °F 33.8 °F 28.4 °F 70% 30.23 in 10.0 mi East 4.6 mph - N/A   Clear
2:55 AM 37.4 °F 32.8 °F 28.4 °F 70% 30.22 in 10.0 mi East 5.8 mph - N/A   Clear
3:15 AM 35.6 °F 29.9 °F 28.4 °F 75% 30.22 in 10.0 mi East 6.9 mph - N/A   Partly Cloudy
3:35 AM 37.4 °F 33.8 °F 28.4 °F 70% 30.22 in 10.0 mi East 4.6 mph - N/A   Mostly Cloudy
4:15 AM 35.6 °F - 28.4 °F 75% 30.22 in 10.0 mi Calm Calm - N/A   Scattered Clouds
4:35 AM 35.6 °F - 28.4 °F 75% 30.22 in 10.0 mi Calm Calm - N/A   Clear
4:55 AM 35.6 °F - 28.4 °F 75% 30.22 in 10.0 mi Calm Calm - N/A   Clear
5:15 AM 35.6 °F 32.8 °F 26.6 °F 70% 30.22 in 10.0 mi SSE 3.5 mph - N/A   Clear
5:35 AM 33.8 °F - 28.4 °F 81% 30.23 in 10.0 mi Calm Calm - N/A   Clear
6:15 AM 32.0 °F - 26.6 °F 80% 30.24 in 10.0 mi Calm Calm - N/A   Clear
6:50 AM 30.2 °F 25.4 °F 28.4 °F 93% 30.24 in 10.0 mi Variable 4.6 mph - N/A   Partly Cloudy
7:50 AM 32.0 °F - 28.4 °F 87% 30.26 in 10.0 mi Calm Calm - N/A   Partly Cloudy
8:50 AM 37.4 °F - 28.4 °F 70% 30.27 in 10.0 mi Calm Calm - N/A   Partly Cloudy
9:50 AM 44.6 °F - 30.2 °F 57% 30.26 in 10.0 mi Calm Calm - N/A   Partly Cloudy
10:50 AM 53.6 °F - 28.4 °F 38% 30.24 in 10.0 mi Calm Calm - N/A   Partly Cloudy
11:50 AM 62.6 °F - 28.4 °F 27% 30.21 in 10.0 mi Calm Calm - N/A   Scattered Clouds
12:50 PM 66.2 °F - 28.4 °F 24% 30.18 in 10.0 mi Calm Calm - N/A   Scattered Clouds
1:50 PM 71.6 °F - 26.6 °F 19% 30.15 in 10.0 mi SW 20.7 mph 28.8 mph N/A   Scattered Clouds
2:50 PM 69.8 °F - 24.8 °F 18% 30.13 in 10.0 mi SW 19.6 mph 27.6 mph N/A   Scattered Clouds
3:50 PM 69.8 °F - 26.6 °F 20% 30.13 in 10.0 mi SW 18.4 mph 24.2 mph N/A   Partly Cloudy
4:50 PM 69.8 °F - 26.6 °F 20% 30.14 in 10.0 mi WSW 16.1 mph 26.5 mph N/A   Partly Cloudy
5:50 PM 64.4 °F - 28.4 °F 26% 30.16 in 10.0 mi SW 11.5 mph - N/A   Partly Cloudy
6:50 PM 64.4 °F - 28.4 °F 26% 30.16 in 10.0 mi SSW 9.2 mph - N/A   Partly Cloudy
7:15 PM 60.8 °F - 28.4 °F 29% 30.17 in 10.0 mi SSW 4.6 mph - N/A   Clear
8:15 PM 51.8 °F - 30.2 °F 44% 30.19 in 10.0 mi North 3.5 mph - N/A   Clear
8:35 PM 51.8 °F - 30.2 °F 44% 30.20 in 10.0 mi North 3.5 mph - N/A   Clear
8:55 PM 51.8 °F - 30.2 °F 44% 30.21 in 10.0 mi NNE 3.5 mph - N/A   Clear
9:15 PM 50.0 °F - 28.4 °F 43% 30.22 in 10.0 mi ESE 5.8 mph - N/A   Clear
9:35 PM 48.2 °F - 28.4 °F 46% 30.23 in 10.0 mi ESE 6.9 mph - N/A   Clear
9:55 PM 46.4 °F 42.9 °F 30.2 °F 53% 30.24 in 10.0 mi East 6.9 mph - N/A   Clear
10:15 PM 46.4 °F 43.5 °F 28.4 °F 50% 30.24 in 10.0 mi ESE 5.8 mph - N/A   Clear
10:35 PM 46.4 °F 45.2 °F 28.4 °F 50% 30.25 in 10.0 mi ENE 3.5 mph - N/A   Clear
10:55 PM 44.6 °F 43.1 °F 28.4 °F 53% 30.25 in 10.0 mi ESE 3.5 mph - N/A   Clear
11:15 PM 44.6 °F 43.1 °F 28.4 °F 53% 30.25 in 10.0 mi SE 3.5 mph - N/A   Clear
11:35 PM 44.6 °F 43.1 °F 28.4 °F 53% 30.26 in 10.0 mi ESE 3.5 mph - N/A   Clear
11:55 PM 41.0 °F 39.0 °F 28.4 °F 61% 30.26 in 10.0 mi East 3.5 mph - N/A   Clear